RH
42 42 45 48 49 50 52 58 62 63 67 74 80 85 89 94 98 97 96 98 100 100 98 93 90 89 87 87 86 84 85 87 84 85 87 86 89 93 89 80 74 75 79 78 83 87 74 58 53 48 42 40 39 41 45 49 50 50 50 47 45 50 52 46 40 34 31 30 27 27 27 24 22 22 22 24 26 27 33 44 40 29 28 30 27 30 34
42 42 44 47 48 49 54 58 59 61 68 74 79 82 85 90 95 95 95 98 99 96 92 88 87 86 84 83 82 82 85 86 83 82 84 85 88 92 89 80 76 77 75 75 83 81 71 64 57 48 43 38 39 45 48 50 51 50 51 51 49 52 52 46 44 41 37 35 32 30 27 24 24 24 22 22 26 28 31 39 39 32 31 32 29 34 40
43 41 43 46 46 48 55 58 57 61 69 74 77 80 81 85 89 90 94 99 97 91 85 83 84 83 82 81 81 83 86 85 83 82 82 81 81 86 86 78 74 75 74 77 79 74 73 72 61 49 44 38 40 48 49 49 51 49 50 51 52 55 54 51 48 45 42 39 34 31 28 24 24 24 22 22 23 26 31 35 35 35 36 32 31 39 44
43 40 42 45 44 48 55 58 56 61 68 73 76 78 78 81 84 85 91 97 99 92 84 81 83 83 84 84 83 87 87 85 85 84 81 78 78 80 79 71 69 74 76 77 77 74 74 73 62 51 46 44 45 48 49 50 50 51 52 54 56 58 55 52 48 43 41 37 30 29 28 26 27 26 24 23 22 25 33 35 34 36 38 36 39 45 45
44 41 41 43 44 49 56 59 58 60 67 71 74 76 78 81 83 84 88 95 99 96 89 85 84 84 85 86 87 90 90 88 88 87 83 80 76 76 76 73 75 78 77 78 79 75 71 69 62 52 46 49 50 47 49 52 51 53 55 55 58 58 52 50 47 43 42 38 31 29 29 29 28 28 27 24 23 26 30 34 36 37 37 40 49 51 46
45 41 40 41 44 49 56 61 60 59 64 69 71 75 77 80 83 85 89 94 97 97 95 90 85 83 85 87 88 92 92 92 93 92 89 81 74 76 79 78 78 74 72 77 79 75 73 73 68 58 54 57 56 50 51 53 52 54 58 60 62 61 57 52 48 46 45 40 34 30 30 30 28 28 29 27 26 25 26 32 38 36 35 41 50 51 45
47 42 40 41 44 48 54 59 60 59 61 66 69 72 75 78 81 84 89 93 96 98 99 96 89 83 83 86 90 94 94 92 91 92 90 82 77 81 82 76 72 70 72 78 81 80 82 82 74 68 68 68 61 54 56 57 54 54 59 64 63 61 61 57 52 51 48 44 40 33 29 30 28 27 29 29 29 30 28 31 36 35 35 42 49 49 43
48 44 42 42 45 48 53 57 60 60 60 64 68 71 72 74 77 81 87 90 94 96 97 98 95 87 83 84 89 93 94 88 83 83 83 80 79 82 82 77 74 74 77 80 82 83 86 83 76 73 77 74 61 58 61 58 54 55 60 65 64 61 60 58 55 54 48 44 44 36 30 31 30 28 28 28 30 32 28 28 31 33 34 40 47 48 43
49 46 42 42 44 48 52 56 58 59 60 64 69 70 71 73 74 79 84 87 89 93 94 97 98 95 91 88 86 90 91 83 76 75 73 75 80 80 78 78 78 79 81 82 81 79 77 75 72 73 78 75 67 65 62 53 53 58 61 63 62 60 60 58 59 55 47 45 46 39 33 32 31 28 27 27 29 30 29 28 29 31 36 41 43 42 45
48 47 43 41 42 46 50 55 57 58 61 65 69 70 71 74 75 77 83 86 87 90 93 96 98 99 99 96 93 93 91 81 74 72 67 69 76 76 73 76 79 82 84 81 77 75 73 69 66 70 74 71 68 67 59 51 54 59 61 62 61 62 62 57 56 53 47 49 50 41 36 35 34 34 32 29 30 31 30 30 30 33 38 40 37 35 45
46 47 45 41 41 44 48 53 55 57 61 65 68 69 69 71 73 75 81 85 85 87 91 94 96 97 98 98 96 93 88 80 74 72 72 73 71 69 71 77 82 86 85 78 73 72 70 64 60 64 69 66 64 62 54 52 56 58 59 61 60 62 61 55 56 55 49 51 51 43 40 41 42 44 42 36 33 32 30 30 32 34 38 39 38 39 46
45 46 46 43 41 42 46 51 53 55 60 64 66 68 69 70 72 75 79 83 83 85 90 93 93 95 97 96 96 93 86 81 75 72 76 77 71 67 71 79 85 87 82 75 72 70 65 60 58 60 62 61 60 57 53 55 57 55 58 60 57 59 59 55 58 58 53 55 54 47 46 49 49 49 47 43 40 36 34 34 34 36 39 41 43 45 46
45 46 46 44 41 41 43 48 52 53 57 62 64 67 70 71 73 75 79 83 83 83 89 94 93 93 95 95 95 91 84 79 74 71 73 75 74 73 75 79 83 84 80 76 74 71 66 63 61 59 57 58 58 56 55 56 55 53 56 57 57 59 59 56 57 57 55 57 57 54 53 54 53 51 48 45 42 38 35 34 34 38 42 40 41 45 45
46 45 46 45 42 41 41 44 49 52 54 58 63 67 70 72 73 75 78 83 83 83 87 92 91 91 94 95 93 89 82 76 72 71 72 71 71 75 77 78 80 80 80 78 75 71 67 64 60 56 56 59 60 57 56 53 52 53 54 55 57 59 58 55 53 56 58 58 57 57 54 51 52 51 47 43 39 38 38 36 37 42 45 42 40 42 44
46 46 47 46 43 42 41 41 45 51 51 53 59 66 70 71 72 74 78 82 83 83 85 86 88 92 94 94 93 88 80 75 72 72 73 71 69 70 72 74 76 76 77 76 73 71 67 61 57 56 57 58 58 57 55 52 51 54 55 55 57 57 56 55 53 54 58 60 59 57 53 52 54 53 50 45 41 41 42 39 37 42 45 42 40 40 44
42 47 48 47 44 43 42 40 42 47 49 50 55 63 69 72 72 73 76 81 82 81 81 83 88 93 92 90 90 88 82 78 75 73 74 73 69 68 68 69 72 73 73 71 70 68 65 58 54 55 54 54 55 55 54 52 51 53 55 56 57 56 58 61 57 53 56 61 61 57 54 55 56 55 53 47 42 41 38 33 36 44 45 43 43 46 48
36 45 49 49 46 42 41 41 41 44 48 48 51 57 65 69 72 73 75 79 83 81 80 84 90 93 91 89 88 88 86 83 80 77 77 74 71 71 70 67 68 69 68 69 69 67 63 59 55 54 52 51 53 54 53 53 52 51 51 55 56 54 57 60 56 52 56 61 61 57 55 55 55 56 54 48 43 39 33 32 39 44 45 45 46 50 51
32 40 48 51 48 41 38 39 40 42 45 46 48 53 59 65 70 73 73 76 83 83 79 82 90 92 91 90 89 89 88 87 85 84 84 81 79 79 76 71 72 71 67 70 72 69 66 64 60 59 57 53 53 55 54 52 53 51 50 53 54 52 54 58 58 55 57 60 59 57 58 58 57 57 53 45 42 40 37 40 44 42 43 46 45 47 49
33 36 43 49 49 43 39 38 38 40 43 45 47 51 56 62 67 71 72 73 80 82 75 76 86 90 89 90 90 88 88 89 88 88 89 87 84 82 78 75 77 76 71 72 75 72 70 69 66 67 67 62 59 59 55 50 50 50 49 51 54 53 52 55 57 55 56 61 63 63 64 62 58 56 53 47 46 48 47 48 49 45 45 45 42 42 44
40 35 39 46 47 45 44 41 39 40 42 45 48 50 53 57 61 67 71 71 76 80 73 71 80 86 87 90 90 88 87 88 89 90 91 88 84 84 83 80 78 77 75 76 76 75 75 74 70 71 75 74 68 64 59 55 51 49 48 52 56 56 54 54 56 55 54 60 63 63 66 67 61 57 56 54 54 55 52 51 52 52 50 47 43 43 42
48 39 38 43 46 44 44 43 41 41 43 45 48 49 53 54 54 60 68 70 74 79 74 69 75 81 83 84 87 88 88 86 86 88 88 85 84 86 88 87 83 82 82 80 79 78 79 79 76 73 75 75 71 66 64 60 55 51 51 53 54 55 54 54 55 55 54 57 59 61 66 69 64 59 60 59 57 55 54 54 55 55 53 50 48 47 46
54 45 40 41 42 41 42 43 42 41 44 46 46 47 52 54 52 58 66 69 73 77 73 69 72 75 77 78 80 82 82 80 81 85 86 86 86 85 85 87 86 84 82 80 78 78 79 81 80 77 77 76 73 70 67 62 58 56 56 56 57 58 57 57 60 60 59 59 61 63 65 66 64 61 61 62 60 58 59 58 56 55 55 53 52 51 50
57 52 44 38 35 35 38 41 41 40 41 44 45 44 47 51 52 57 64 68 70 71 68 67 68 68 70 75 77 77 77 78 81 84 85 86 86 83 83 84 83 81 80 79 77 77 80 81 79 78 79 78 75 73 69 63 62 63 63 63 65 63 60 62 66 67 63 62 64 65 65 65 64 60 60 64 66 65 64 60 56 55 55 53 53 53 54
59 55 47 37 32 32 34 37 40 40 39 41 43 43 44 47 50 56 63 68 69 69 67 66 64 63 65 70 74 75 74 75 79 82 82 83 83 82 82 82 81 81 82 80 78 78 79 79 79 78 78 77 76 76 71 65 64 67 68 68 69 66 64 67 70 69 67 68 69 68 67 68 65 61 62 68 69 66 64 61 58 55 54 52 52 54 56
61 56 48 38 32 31 32 34 38 39 38 39 42 44 44 45 49 57 66 69 69 70 73 71 63 58 61 66 70 73 72 71 73 77 81 82 82 82 83 81 81 83 82 81 81 82 81 81 82 82 78 75 77 78 73 67 66 70 72 71 68 66 67 70 70 69 70 71 71 68 68 68 64 59 62 68 67 61 59 60 58 55 54 53 53 55 56
61 56 49 41 35 32 32 33 36 39 38 38 41 44 45 45 51 60 67 70 68 68 73 74 66 58 59 64 66 68 69 68 67 69 73 77 80 83 84 83 83 83 81 81 85 87 87 86 86 84 81 77 78 80 77 72 71 72 72 71 66 65 68 69 68 68 69 69 68 68 69 68 63 59 61 65 64 59 57 57 57 56 54 53 53 55 56
59 57 51 44 37 32 32 33 36 39 40 39 42 46 44 45 54 63 66 69 70 66 67 73 70 61 57 58 59 62 65 66 66 67 68 71 75 79 81 83 85 84 83 85 89 90 89 89 87 86 84 82 81 81 79 77 76 75 75 72 69 68 70 71 68 68 69 67 65 65 67 66 62 62 65 67 64 60 56 54 55 56 55 52 51 51 52
57 55 51 45 38 33 32 34 36 39 41 42 45 48 48 49 57 65 67 69 70 66 65 69 69 64 59 56 54 55 60 63 65 67 66 65 67 71 76 80 84 83 84 87 89 89 89 88 87 88 89 87 85 83 81 80 80 81 80 77 72 71 72 73 71 70 68 65 62 63 65 64 60 60 63 65 63 59 55 52 52 55 56 54 51 49 50
54 54 51 47 41 34 33 35 36 38 42 44 47 51 55 58 61 65 70 72 69 65 65 66 65 62 60 57 54 53 55 59 64 67 66 63 61 64 69 75 79 81 82 82 82 83 83 83 84 87 87 86 85 85 86 84 84 84 83 80 77 73 71 73 75 74 70 68 66 66 66 65 61 59 60 61 60 58 55 51 50 51 54 55 53 51 52
52 53 51 48 42 35 34 36 38 39 43 45 47 51 58 64 65 67 72 74 68 62 64 67 66 60 55 54 57 56 53 54 60 64 65 62 59 59 62 66 71 74 75 73 71 72 74 73 75 78 79 80 83 88 89 87 86 86 85 83 81 77 72 72 76 77 74 71 68 65 65 65 65 63 62 62 60 57 55 53 52 52 54 54 54 54 53
50 51 51 49 43 35 35 38 39 41 44 46 48 53 60 65 66 66 72 73 65 58 60 68 70 65 56 53 56 58 56 54 55 58 60 60 59 59 59 60 63 64 62 62 63 64 67 68 68 68 71 74 80 86 88 87 86 85 83 81 80 78 75 74 76 77 74 71 67 64 64 64 65 65 64 63 61 59 57 55 53 54 56 56 55 55 54
48 49 50 50 43 36 36 39 41 43 46 48 50 54 58 61 59 60 67 69 61 55 58 66 72 72 66 60 58 58 57 55 52 50 50 52 56 58 57 58 62 61 58 58 59 60 61 63 63 62 64 67 72 80 85 86 84 82 80 78 77 76 76 76 76 75 73 70 68 67 68 67 66 66 66 65 63 62 60 58 55 55 56 56 55 56 56
47 47 49 50 44 37 37 40 41 44 47 49 51 52 55 58 59 61 67 67 59 55 59 66 71 74 71 66 60 57 56 54 48 43 42 45 50 55 56 57 59 60 59 59 59 58 58 58 58 59 61 63 68 75 80 80 79 79 79 77 76 74 75 77 77 74 72 70 69 70 70 69 67 66 66 65 64 62 61 60 57 56 56 55 55 55 55
46 47 50 51 45 38 37 40 43 45 48 50 51 52 55 60 62 65 70 71 63 59 63 68 73 75 72 67 62 57 56 54 49 44 43 43 44 49 54 54 53 55 58 59 57 57 57 56 55 58 61 63 67 73 75 74 73 75 75 74 73 72 72 73 75 74 74 73 70 69 69 67 65 65 63 61 60 58 57 56 55 54 54 55 55 54 53
46 47 50 52 46 38 37 40 43 46 49 51 53 55 60 65 66 67 71 72 66 61 62 68 72 73 71 69 64 57 54 54 51 47 46 44 42 44 51 53 50 49 51 53 54 57 58 56 54 57 62 66 67 71 74 74 71 70 70 70 69 68 67 67 69 70 71 72 70 68 68 66 63 62 61 58 56 54 53 52 52 51 52 53 54 54 53
46 47 51 54 49 40 38 44 49 50 54 59 62 65 69 71 69 66 68 70 68 63 63 68 70 67 67 68 64 56 52 54 53 50 48 46 44 43 46 51 53 48 44 48 55 59 57 56 57 61 66 68 68 66 67 69 69 68 69 68 67 67 66 65 64 64 64 64 65 65 63 61 59 57 56 54 53 52 51 50 51 51 51 53 54 55 55
44 47 52 57 55 48 48 55 60 60 63 67 68 69 71 70 66 64 65 70 71 67 66 71 72 65 63 66 63 57 53 51 51 51 48 45 44 43 43 51 57 52 44 46 52 56 56 58 63 67 66 65 64 61 60 61 62 63 65 64 63 64 65 64 62 61 60 60 61 60 58 57 56 54 52 51 51 50 50 49 49 48 50 52 54 54 55
43 47 53 59 60 56 55 60 65 69 72 72 70 69 69 67 66 67 70 75 77 72 68 70 68 61 59 63 61 55 50 47 47 48 46 42 42 42 42 48 55 53 45 42 44 51 58 64 68 68 62 56 55 56 56 57 57 57 56 55 54 56 59 60 60 61 63 63 62 61 59 58 57 56 55 54 53 51 50 49 47 46 46 48 50 51 52
43 49 57 61 61 57 55 58 64 70 73 72 70 69 68 67 69 73 76 79 81 77 72 68 62 57 62 69 64 53 47 45 46 45 41 38 38 38 37 41 45 45 45 46 47 53 60 63 63 62 58 52 50 50 51 53 54 52 50 50 50 49 52 54 55 56 59 62 63 62 61 61 61 60 59 57 55 53 50 48 46 46 46 48 50 51 52
44 53 61 62 59 54 52 57 63 68 71 73 73 72 70 68 69 73 76 79 82 80 75 69 60 56 61 69 66 56 48 43 42 42 38 34 33 32 32 35 35 37 44 52 55 56 58 57 56 57 56 51 48 44 42 44 47 47 47 47 46 44 45 46 46 46 50 55 60 61 61 61 60 60 58 56 54 52 50 48 49 49 51 54 57 57 55
45 56 64 63 57 50 50 55 61 66 71 77 78 76 73 70 67 67 70 77 81 79 74 68 60 54 55 61 64 61 53 43 38 37 35 30 27 26 28 31 32 33 38 44 48 53 56 55 56 61 61 54 48 44 41 41 41 41 41 41 39 37 38 39 39 40 43 48 53 55 56 56 54 53 51 49 47 47 48 50 51 53 54 57 59 59 57
50 62 69 66 58 50 49 53 58 65 73 77 77 77 75 71 67 66 69 73 77 76 73 70 64 56 52 53 57 59 55 45 36 33 30 26 23 24 27 30 31 31 32 35 41 47 51 53 57 62 60 55 51 50 47 44 40 37 37 37 35 33 34 37 39 41 42 45 47 48 47 46 46 45 43 41 39 40 42 45 48 51 53 54 56 57 57
58 71 74 68 60 55 54 55 60 68 75 77 77 79 78 73 70 71 72 72 72 71 71 72 68 60 53 53 55 55 51 44 34 28 25 23 22 22 25 27 27 27 30 35 40 44 47 53 59 60 55 51 51 50 47 44 40 37 36 37 38 37 37 37 39 41 41 42 43 43 40 39 39 38 38 38 38 38 38 40 43 45 46 48 50 52 53
68 74 72 66 62 60 59 59 63 69 75 78 77 78 79 79 78 77 76 74 74 72 71 73 73 66 60 58 56 51 47 43 36 30 25 23 21 21 23 24 25 26 30 37 41 42 45 50 53 50 46 45 45 42 38 35 33 30 30 32 35 38 39 39 38 38 38 39 40 39 38 37 38 39 39 39 41 42 42 42 42 42 42 42 44 47 49
75 75 69 65 66 65 63 63 65 67 73 80 80 78 80 84 84 80 77 77 77 74 70 71 73 70 66 62 57 52 48 46 42 36 30 25 24 24 23 22 23 27 31 36 39 40 43 47 46 42 40 40 37 31 27 25 23 22 22 24 27 31 34 35 34 32 33 34 35 34 34 35 35 37 37 36 36 37 39 39 38 37 37 37 38 40 43
78 75 68 65 69 69 66 68 71 70 72 78 81 80 80 83 82 79 77 78 78 74 71 70 71 72 71 67 60 55 51 48 46 43 36 28 26 27 24 21 24 29 34 38 40 41 47 51 49 42 39 37 32 26 22 19 18 17 17 19 21 23 26 29 29 29 28 28 28 29 29 29 28 28 30 28 27 28 31 31 31 31 32 32 32 33 34
79 74 67 67 73 73 69 70 73 72 71 75 80 80 79 80 81 79 77 77 77 75 71 69 69 71 72 69 65 62 57 52 49 45 37 30 29 29 25 25 30 34 36 39 42 45 50 52 48 41 38 36 32 27 22 19 18 18 17 18 19 23 27 31 33 31 29 27 27 27 27 26 24 24 27 28 28 29 29 30 30 30 30 29 30 30 31
80 75 70 72 76 76 72 72 72 70 69 74 80 81 80 80 82 81 78 77 76 74 71 69 70 72 72 71 69 68 62 55 50 45 37 32 31 29 26 29 35 36 37 41 47 50 50 47 41 36 34 32 28 25 22 20 19 19 18 18 20 23 27 31 32 30 27 27 27 27 26 25 25 25 27 29 29 29 29 30 30 30 29 30 31 31 32
83 79 76 75 75 73 72 73 73 70 69 72 77 80 80 80 81 82 81 78 77 75 72 71 72 74 74 72 70 67 62 58 55 49 39 32 29 27 27 31 35 35 38 45 49 48 44 41 38 36 35 32 28 25 23 21 20 20 20 20 21 23 25 27 27 27 26 26 26 24 24 24 25 26 26 27 28 28 28 29 30 30 30 32 33 32 32
82 81 79 77 76 75 76 77 77 75 72 70 72 78 83 83 82 83 83 81 79 78 77 74 73 75 75 73 71 69 66 63 60 54 45 36 30 25 25 29 34 38 40 44 45 44 43 41 40 40 38 33 28 26 24 23 22 22 22 22 22 22 23 25 26 26 27 27 26 25 25 25 26 26 27 27 27 27 27 29 31 31 31 33 34 33 33
80 81 80 76 74 76 80 81 80 79 75 70 69 75 82 84 84 83 83 82 81 82 83 79 76 75 75 73 71 70 67 63 61 60 54 44 35 27 25 30 39 44 45 44 44 45 44 42 41 41 38 31 26 25 24 24 24 24 25 25 24 22 22 22 23 25 28 28 27 26 26 26 27 28 28 27 27 28 29 29 30 31 32 34 34 34 34
79 83 82 75 71 74 78 78 76 73 70 67 68 73 79 83 84 84 84 83 82 83 84 82 78 76 75 73 71 69 67 64 63 64 60 52 42 36 35 38 43 45 44 43 44 45 45 43 41 40 35 31 28 27 25 24 25 26 26 26 25 23 21 20 20 23 26 28 28 29 29 29 30 30 29 28 30 31 30 29 30 32 33 33 34 35 36